Location: Mat�lon
(46.2791°N, 7.1028°E)
Time: 01:42:30
(UTC+00:00)

Meteor 1-15 Rocket - Pass Details

Date: 18 September 2020
Orbit: 840 x 907 km, 81.2° (Epoch: 31 October)

Event Time Altitude Azimuth Distance (km) Brightness Sun altitude
Rises 19:50:17 0° 192° (SSW) 3,391 7.2 -22.9°
Reaches altitude 10° 19:52:41 10° 194° (SSW) 2,466 6.5 -23.3°
Maximum altitude 19:58:17 80° 281° (W) 875 4.2 -24.1°
Drops below altitude 10° 20:04:01 10° 9° (N) 2,524 6.9 -25.0°
Sets 20:06:30 0° 11° (N) 3,476 7.7 -25.4°
